Weather History for KMNM - February, 2012

Change the Weather History Date:

Monday, February 27, 2012

  Actual Average Record
Temperature  
Mean Temperature 34 °F -  
Max Temperature 37 °F 36 °F 53 °F (1976)
Min Temperature 30 °F 17 °F -14 °F (2014)
Degree Days  
Heating Degree Days 32    
Moisture  
Dew Point 19 °F    
Average Humidity 56    
Maximum Humidity 70    
Minimum Humidity 38    
Precipitation  
Precipitation 0.00 in - - ()
Sea Level Pressure  
Sea Level Pressure 30.06 in    
Wind  
Wind Speed 10 mph (WNW)    
Max Wind Speed 18 mph    
Max Gust Speed 25 mph    
Visibility 10 miles    
Events      
Averages and records for this station are not official NWS values.
T = Trace of Precipitation, MM = Missing Value Source: NWS Daily Summary

Daily Weather History Graph

Daily Weather History Graph

Search for Another Location

Airport or City:

Trip Planner

Search our weather history database for the weather conditions in past years. The results will help you decide how hot, cold, wet, or windy it might be!

Date:

Astronomy

Feb. 27, 2012 Rise Set
Actual Time 6:32 AM CST 5:34 PM CST
Civil Twilight 6:03 AM CST 6:04 PM CST
Nautical Twilight 5:29 AM CST 6:38 PM CST
Astronomical Twilight 4:55 AM CST 7:12 PM CST
Moon 8:43 AM CST (2/27) 11:47 PM CST (2/27)
Length of Visible Light 12h 00m
Length of Day
11h 01m
Waxing Crescent, 29% of the Moon is Illuminated
Feb 27
Waxing Crescent
Feb 29
First Quarter
Mar 8
Full
Mar 14
Last Quarter
Mar 22
New

Hourly Weather History & Observations

Time (CST) Temp. Windchill Dew Point Humidity Pressure Visibility Wind Dir Wind Speed Gust Speed Precip Events Conditions
12:15 AM 35.6 °F 29.2 °F 23.0 °F 60% 29.84 in 10.0 mi West 8.1 mph 21.9 mph N/A   Overcast
12:35 AM 35.6 °F 28.0 °F 23.0 °F 60% 29.84 in 10.0 mi West 10.4 mph 17.3 mph N/A   Overcast
12:55 AM 35.6 °F 29.2 °F 23.0 °F 60% 29.84 in 10.0 mi West 8.1 mph - N/A   Overcast
1:15 AM 33.8 °F 27.0 °F 24.8 °F 70% 29.85 in 10.0 mi West 8.1 mph - N/A   Overcast
1:35 AM 35.6 °F 27.5 °F 23.0 °F 60% 29.86 in 10.0 mi West 11.5 mph 23.0 mph N/A   Overcast
1:55 AM 33.8 °F 27.7 °F 21.2 °F 60% 29.86 in 10.0 mi West 6.9 mph 20.7 mph N/A   Overcast
2:15 AM 33.8 °F 28.6 °F 23.0 °F 65% 29.87 in 10.0 mi West 5.8 mph - N/A   Overcast
2:35 AM 33.8 °F 24.8 °F 23.0 °F 65% 29.86 in 10.0 mi West 12.7 mph 19.6 mph N/A   Overcast
2:55 AM 33.8 °F 25.8 °F 23.0 °F 65% 29.87 in 10.0 mi West 10.4 mph 19.6 mph N/A   Overcast
3:15 AM 33.8 °F 25.3 °F 23.0 °F 65% 29.88 in 10.0 mi West 11.5 mph 17.3 mph N/A   Overcast
3:35 AM 33.8 °F 24.8 °F 21.2 °F 60% 29.88 in 10.0 mi WNW 12.7 mph 23.0 mph N/A   Overcast
3:55 AM 33.8 °F 24.3 °F 19.4 °F 56% 29.88 in 10.0 mi West 13.8 mph 24.2 mph N/A   Overcast
4:15 AM 33.8 °F 24.8 °F 19.4 °F 56% 29.89 in 10.0 mi West 12.7 mph 19.6 mph N/A   Overcast
4:35 AM 32.0 °F 23.6 °F 21.2 °F 64% 29.90 in 10.0 mi West 10.4 mph 20.7 mph N/A   Overcast
4:55 AM 32.0 °F 23.0 °F 19.4 °F 60% 29.91 in 10.0 mi West 11.5 mph 19.6 mph N/A   Overcast
5:15 AM 32.0 °F 25.6 °F 21.2 °F 64% 29.92 in 10.0 mi West 6.9 mph 16.1 mph N/A   Overcast
5:35 AM 32.0 °F 24.8 °F 19.4 °F 60% 29.92 in 10.0 mi West 8.1 mph - N/A   Overcast
5:55 AM 32.0 °F 23.0 °F 21.2 °F 64% 29.93 in 10.0 mi West 11.5 mph - N/A   Overcast
6:15 AM 32.0 °F 24.8 °F 21.2 °F 64% 29.94 in 10.0 mi West 8.1 mph - N/A   Overcast
6:35 AM 32.0 °F 23.6 °F 21.2 °F 64% 29.94 in 10.0 mi West 10.4 mph 17.3 mph N/A   Overcast
6:55 AM 30.2 °F 21.9 °F 21.2 °F 69% 29.95 in 10.0 mi West 9.2 mph 18.4 mph N/A   Overcast
7:15 AM 30.2 °F 21.3 °F 21.2 °F 69% 29.96 in 10.0 mi West 10.4 mph 20.7 mph N/A   Overcast
7:35 AM 32.0 °F 24.2 °F 21.2 °F 64% 29.98 in 10.0 mi West 9.2 mph - N/A   Overcast
7:55 AM 32.0 °F 22.5 °F 21.2 °F 64% 29.99 in 10.0 mi West 12.7 mph 17.3 mph N/A   Overcast
8:15 AM 32.0 °F 22.5 °F 21.2 °F 64% 30.00 in 10.0 mi WNW 12.7 mph 19.6 mph N/A   Overcast
8:35 AM 32.0 °F 23.0 °F 23.0 °F 69% 30.01 in 10.0 mi WNW 11.5 mph 20.7 mph N/A   Overcast
8:55 AM 33.8 °F 26.4 °F 21.2 °F 60% 30.03 in 10.0 mi WNW 9.2 mph 24.2 mph N/A   Overcast
9:15 AM 32.0 °F 22.5 °F 23.0 °F 69% 30.04 in 10.0 mi WNW 12.7 mph 19.6 mph N/A   Overcast
9:35 AM 33.8 °F 25.3 °F 23.0 °F 65% 30.06 in 10.0 mi WNW 11.5 mph 18.4 mph N/A   Overcast
9:55 AM 33.8 °F 25.3 °F 23.0 °F 65% 30.07 in 10.0 mi WNW 11.5 mph 21.9 mph N/A   Overcast
10:15 AM 33.8 °F 23.9 °F 24.8 °F 70% 30.09 in 10.0 mi NNW 15.0 mph 23.0 mph N/A   Overcast
10:35 AM 33.8 °F 25.8 °F 23.0 °F 65% 30.10 in 10.0 mi NNW 10.4 mph 24.2 mph N/A   Overcast
10:55 AM 35.6 °F 28.6 °F 21.2 °F 56% 30.11 in 10.0 mi NNW 9.2 mph 24.2 mph N/A   Mostly Cloudy
11:15 AM 35.6 °F 27.5 °F 19.4 °F 52% 30.13 in 10.0 mi NNW 11.5 mph 19.6 mph N/A   Overcast
11:35 AM 35.6 °F 25.2 °F 19.4 °F 52% 30.15 in 10.0 mi NNW 18.4 mph 25.3 mph N/A   Overcast
11:55 AM 35.6 °F 27.5 °F 19.4 °F 52% 30.17 in 10.0 mi NW 11.5 mph 17.3 mph N/A   Mostly Cloudy
12:15 PM 35.6 °F 28.0 °F 19.4 °F 52% 30.18 in 10.0 mi NW 10.4 mph 21.9 mph N/A   Overcast
12:55 PM 35.6 °F 25.9 °F 17.6 °F 48% 30.20 in 10.0 mi NW 16.1 mph 25.3 mph N/A   Mostly Cloudy
1:15 PM 35.6 °F 26.6 °F 17.6 °F 48% 30.21 in 10.0 mi NW 13.8 mph 19.6 mph N/A   Partly Cloudy
1:35 PM 35.6 °F 27.5 °F 15.8 °F 44% 30.21 in 10.0 mi WNW 11.5 mph 17.3 mph N/A   Clear
1:55 PM 37.4 °F 28.9 °F 15.8 °F 41% 30.22 in 10.0 mi NNW 13.8 mph 21.9 mph N/A   Clear
2:15 PM 37.4 °F 30.3 °F 15.8 °F 41% 30.23 in 10.0 mi WNW 10.4 mph 16.1 mph N/A   Clear
2:35 PM 37.4 °F 31.4 °F 14.0 °F 38% 30.25 in 10.0 mi NW 8.1 mph 19.6 mph N/A   Scattered Clouds
2:55 PM 37.4 °F 29.8 °F 15.8 °F 41% 30.27 in 10.0 mi NNW 11.5 mph 19.6 mph N/A   Scattered Clouds
3:15 PM 37.4 °F 32.1 °F 15.8 °F 41% 30.27 in 10.0 mi NNW 6.9 mph 17.3 mph N/A   Partly Cloudy
3:35 PM 37.4 °F 30.3 °F 14.0 °F 38% 30.28 in 10.0 mi NNW 10.4 mph 16.1 mph N/A   Clear
3:55 PM 37.4 °F 32.8 °F 14.0 °F 38% 30.30 in 10.0 mi NW 5.8 mph - N/A   Clear
4:15 PM 37.4 °F 33.8 °F 14.0 °F 38% 30.31 in 10.0 mi NW 4.6 mph - N/A   Clear
4:35 PM 35.6 °F 29.2 °F 14.0 °F 41% 30.31 in 10.0 mi NNW 8.1 mph - N/A   Clear
4:55 PM 35.6 °F 28.6 °F 14.0 °F 41% 30.32 in 10.0 mi WNW 9.2 mph - N/A   Clear
5:15 PM 35.6 °F 29.9 °F 12.2 °F 38% 30.34 in 10.0 mi NNW 6.9 mph - N/A   Clear
5:35 PM 33.8 °F 29.6 °F 12.2 °F 41% 30.35 in 10.0 mi NW 4.6 mph - N/A   Clear
5:55 PM 33.8 °F 29.6 °F 14.0 °F 44% 30.36 in 10.0 mi NNW 4.6 mph - N/A   Clear
6:15 PM 32.0 °F 27.5 °F 12.2 °F 44% 30.37 in 10.0 mi NNW 4.6 mph - N/A   Clear
6:35 PM 30.2 °F 24.3 °F 12.2 °F 47% 30.38 in 10.0 mi NNW 5.8 mph - N/A   Clear
6:55 PM 30.2 °F 25.4 °F 14.0 °F 51% 30.38 in 10.0 mi North 4.6 mph - N/A   Clear
7:15 PM 30.2 °F 25.4 °F 14.0 °F 51% 30.38 in 10.0 mi NNE 4.6 mph - N/A   Clear
7:35 PM 28.4 °F 23.3 °F 15.8 °F 59% 30.39 in 10.0 mi North 4.6 mph - N/A   Clear
7:55 PM 28.4 °F - 15.8 °F 59% 30.40 in 10.0 mi Calm Calm - N/A   Clear
8:15 PM 28.4 °F - 15.8 °F 59% 30.41 in 10.0 mi Calm Calm - N/A   Clear
8:35 PM 26.6 °F 22.6 °F 17.6 °F 69% 30.42 in 10.0 mi North 3.5 mph - N/A   Clear
8:55 PM 26.6 °F - 15.8 °F 64% 30.42 in 10.0 mi Calm Calm - N/A   Clear
9:15 PM 26.6 °F - 15.8 °F 64% 30.43 in 10.0 mi Calm Calm - N/A   Clear
9:35 PM 24.8 °F - 15.8 °F 69% 30.44 in 10.0 mi Calm Calm - N/A   Clear
9:55 PM 23.0 °F - 15.8 °F 74% 30.44 in 10.0 mi Calm Calm - N/A   Clear
10:15 PM 23.0 °F - 15.8 °F 74% 30.44 in 10.0 mi Calm Calm - N/A   Clear
10:35 PM 23.0 °F 18.4 °F 17.6 °F 80% 30.44 in 10.0 mi NE 3.5 mph - N/A   Clear
10:55 PM 24.8 °F 20.5 °F 17.6 °F 74% 30.45 in 10.0 mi NNE 3.5 mph - N/A   Clear
11:15 PM 24.8 °F 19.1 °F 15.8 °F 69% 30.45 in 10.0 mi North 4.6 mph - N/A   Clear
11:35 PM 21.2 °F 16.4 °F 15.8 °F 80% 30.45 in 10.0 mi North 3.5 mph - N/A   Clear
11:55 PM 23.0 °F 18.4 °F 17.6 °F 80% 30.45 in 10.0 mi North 3.5 mph - N/A   Clear